Regional Weather Roundup
Issued by NWS

Home | Current Version | Previous Version | Text Only | Print | Product List | Glossary On
Versions: 1 2 3 4 5 6 7 8 9 10 11 12 13 14 15 16 17 18 19 20 21 22 23 24 25 26 27 28 29 30 31 32 33 34 35 36 37 38 39 40 41 42 43 44 45 46 47 48 49 50
000
ASUS43 KDMX 271307
RWRIA

WEATHER ROUNDUP FOR IOWA
NATIONAL WEATHER SERVICE DES MOINES IA
800 AM CDT THU AUG 27 2015

NOTE: "FAIR" INDICATES FEW OR NO CLOUDS BELOW 12,000 FEET WITH NO
SIGNIFICANT WEATHER AND/OR OBSTRUCTIONS TO VISIBILITY.

* - THESE STATIONS ARE NOT NWS STATIONS...THUS NOT UNDER NWS
QUALITY CONTROL.  THEY ALSO DO NOT REPORT WEATHER SUCH
AS PRECIPITATION OR FOG.

IAZ001>003-012>014-020>022-031>034-043>046-271400-
   NORTHWEST IOWA

CITY           SKY/WX    TMP DP  RH WIND       PRES   REMARKS
CARROLL *      SUNNY     57  57 100 SE3       30.09R
CHEROKEE *     CLOUDY    61  57  88 S3        30.08R
DENISON *      CLOUDY    63  55  77 S3        30.06R
LE MARS *      CLOUDY    63  61  94 NW12G21   30.09R
ORANGE CITY *  CLOUDY    63  61  94 W3G26     30.11R
SHELDON *      PTSUNNY   61  57  88 SW10G29   30.11R
SIOUX CITY     TSTM      63  59  87 CALM      30.04R
SPENCER        CLOUDY    60  54  80 S6        30.08R
STORM LAKE *   PTSUNNY   59  55  88 S5        30.09R
$$

IAZ055>058-069>071-079>083-090>094-271400-
   SOUTHWEST IOWA

CITY           SKY/WX    TMP DP  RH WIND       PRES   REMARKS
ATLANTIC *     SUNNY     64  55  72 VRB6      30.07R
AUDUBON *      SUNNY     59  55  88 S3        30.08S
CLARINDA *     MOSUNNY   64  55  72 SE6       30.08F
COUNCIL BLFS * CLOUDY    64  57  77 S9        30.07R
CRESTON *      MOSUNNY   61  55  82 SE9       30.11R
HARLAN  *      CLOUDY    63  63 100 S6        30.10R
LAMONI         PTSUNNY   61  54  77 SE9       30.11S
RED OAK *      MOSUNNY   64  55  72 S6        30.06S
SHENANDOAH *   MOSUNNY   66  57  72 SE9       30.05S
$$

IAZ047>049-059>061-072>074-084-271400-
   CENTRAL IOWA

CITY           SKY/WX    TMP DP  RH WIND       PRES   REMARKS
AMES           CLOUDY    55  54  96 SE3       30.11F
ANKENY *       SUNNY     59  57  94 SE6       30.11F
CHARITON *     SUNNY     57  55  94 SE6       30.13R
DES MOINES     CLOUDY    62  52  69 SE9       30.11S
GRINNELL*      PTSUNNY   59  55  88 SE8       30.15S
KNOXVILLE *    SUNNY     57  54  88 SE6       30.12S
MARSHALLTOWN   PTSUNNY   56  53  90 E7        30.14R
PELLA *        PTSUNNY   59  57  94 CALM      30.15S
PERRY *          N/A     57  55  94 E6        30.09F
$$

IAZ004>006-015-016-023>025-035-036-271400-
   NORTH CENTRAL IOWA

CITY           SKY/WX    TMP DP  RH WIND       PRES   REMARKS
ALGONA *       SUNNY     59  54  82 SE8       30.10S
CLARION *      SUNNY     57  54  88 SE9       30.11S
ESTHERVILLE    CLOUDY    56  54  93 SE3       30.10R
FORT DODGE *   CLOUDY    59  52  77 CALM      30.10R
MASON CITY     CLOUDY    56  53  90 SE7       30.15R
FOREST CITY *  SUNNY     55  54  94 SE6       30.12S
IOWA FALLS *     N/A     57  54  88 E3        30.15R
$$

IAZ007>011-017>019-026>030-037>042-050>054-066-271400-
   NORTHEAST IOWA

CITY           SKY/WX    TMP DP  RH WIND       PRES   REMARKS
CEDAR RAPIDS   SUNNY     58  58 100 SE5       30.16R
CHARLES CITY * SUNNY     57  55  94 SE7       30.16R
CLINTON *      SUNNY     57  54  88 SE6       30.21S
DECORAH *      MOSUNNY   55  54  94 S5        30.15S
DUBUQUE        SUNNY     57  55  93 S8        30.19R
MONTICELLO *   SUNNY     55  55 100 SE6       30.18R
OELWEIN *      SUNNY     55  55 100 SE5       30.18
WATERLOO       MOSUNNY   58  54  86 SE7       30.15R
$$

IAZ064-065-067-068-078-271400-
   EAST CENTRAL IOWA

CITY           SKY/WX    TMP DP  RH WIND       PRES   REMARKS
DAVENPORT      SUNNY     59  55  87 S6        30.19S
IOWA CITY      SUNNY     57  55  93 SE3       30.18R
MT. PLEASANT * SUNNY     61  57  88 SE3       30.18R
MUSCATINE *    SUNNY     57  54  88 CALM      30.18S
QUAD CITIES    SUNNY     58  54  86 E5        30.18S
$$

IAZ062-063-075>077-085>089-095>099-271400-
   SOUTHEAST IOWA

CITY           SKY/WX    TMP DP  RH WIND       PRES   REMARKS
BURLINGTON     SUNNY     59  56  89 S7        30.17F
FAIRFIELD *    SUNNY     61  55  82 SE9       30.15F
FORT MADISON * SUNNY     57  55  94 S6        30.19S
KEOKUK *       SUNNY     59  55  88 SE8       30.17S FOG
OSKALOOSA *      N/A     57  55  94 S5        30.15S
CENTERVILLE *  SUNNY     57  55  94 SE3       30.15S
OTTUMWA        PTSUNNY   60  57  89 S9        30.14S
WASHINGTON *     N/A    N/A N/A N/A MISG        N/A
$$

ABBREVIATIONS USED IN REMARKS
   TC - TEMPERATURES IN CELSIUS
  WCI - WIND CHILL INDEX
   HX - HEAT INDEX
  VSB - VISIBILITY
$$



USA.gov is the U.S. government's official web portal to all federal, state and local government web resources and services.